CW0526 Weather Reports


time (UTC)temp
F
wind
direction
speed
knots
gust
knots
rain 1hr
in
rain 24hr
in
rain mn
in
humidity
%
barometer
mb
20260506073055 44 70 1.7 7.8 0.00 0.00 0.00 74 1017.0
20260506071553 44 57 1.7 4.3 0.00 0.00 0.00 76 1017.1
20260506070554 43 54 1.7 2.6 0.00 0.00 0.00 77 1017.1
20260506061054 41 53 1.7 2.6 0.00 0.00 0.00 79 1017.1
20260506051054 40 67 0.0 0.0 0.00 0.00 0.00 80 1017.2
20260506043554 40 69 0.0 0.9 0.00 0.00 0.00 79 1017.2
20260506043055 40 69 0.0 0.0 0.00 0.00 0.00 79 1017.1
20260506041554 40 69 0.0 0.9 0.00 0.00 0.00 78 1017.1
20260506041054 40 69 0.9 1.7 0.00 0.00 0.00 78 1017.1
20260506040056 41 69 0.0 2.6 0.00 0.00 0.00 78 1017.1
20260506034554 41 71 0.9 2.6 0.00 0.00 0.00 77 1017.1
20260506033554 41 71 0.9 2.6 0.00 0.00 0.00 77 1017.2
20260506031054 41 69 0.9 2.6 0.00 0.00 0.00 77 1017.2
20260506030554 42 71 0.9 1.7 0.00 0.00 0.00 77 1017.3
20260506024554 42 73 0.9 1.7 0.00 0.00 0.00 76 1017.3
20260506024054 42 72 0.9 2.6 0.00 0.00 0.00 76 1017.3
20260506023555 42 73 0.9 2.6 0.00 0.00 0.00 76 1017.2
20260506021054 42 52 1.7 2.6 0.00 0.00 0.00 76 1017.4
20260506014554 42 61 0.9 2.6 0.00 0.00 0.00 75 1017.4
20260506014054 42 60 0.9 2.6 0.00 0.00 0.00 75 1017.4
20260506013555 42 61 1.7 2.6 0.00 0.00 0.00 75 1017.4
20260506011554 43 55 0.9 2.6 0.00 0.00 0.00 75 1017.7
20260506010056 43 50 0.9 2.6 0.00 0.00 0.00 75 1017.7
20260506004055 43 38 1.7 4.3 0.00 0.00 0.00 74 1017.8
20260506003055 43 45 0.9 2.6 0.00 0.00 0.00 74 1017.8
20260506001554 43 32 1.7 4.3 0.00 0.00 0.00 74 1017.7
20260506000554 43 46 1.7 2.6 0.00 0.00 0.00 74 1017.6
20260505233554 43 27 2.6 5.2 0.00 0.00 0.00 73 1017.5
20260505230056 44 63 2.6 7.8 0.00 0.00 0.00 72 1017.8
20260505224554 44 37 2.6 7.8 0.00 0.00 0.00 72 1017.8
20260505224054 44 63 1.7 6.1 0.00 0.00 0.00 72 1017.8
20260505223554 44 54 1.7 7.0 0.00 0.00 0.00 72 1017.8
20260505223056 44 34 2.6 7.8 0.00 0.00 0.00 72 1017.7
20260505221554 44 30 2.6 5.2 0.00 0.00 0.00 72 1017.8
20260505214555 45 38 4.3 10.4 0.00 0.00 0.00 71 1017.6
20260505214054 45 54 4.3 11.3 0.00 0.00 0.00 71 1017.6
20260505213056 45 67 4.3 10.4 0.00 0.00 0.00 71 1017.6
20260505211554 45 71 5.2 8.7 0.00 0.00 0.00 71 1017.6
20260505210555 45 44 3.5 6.1 0.00 0.00 0.00 71 1017.5
20260505204554 45 37 3.5 10.4 0.00 0.00 0.00 71 1017.5
20260505204054 45 37 2.6 8.7 0.00 0.00 0.00 71 1017.5
20260505203554 45 53 4.3 13.0 0.00 0.00 0.00 71 1017.4
20260505203055 45 0 2.6 11.3 0.00 0.00 0.00 71 1017.3
20260505201554 46 25 3.5 7.8 0.00 0.00 0.00 71 1017.3
20260505200057 46 80 4.3 10.4 0.00 0.00 0.00 72 1017.2
20260505193554 46 48 4.3 11.3 0.00 0.00 0.00 70 1017.0
20260505191555 47 36 5.2 11.3 0.00 0.00 0.00 70 1016.8
20260505191055 47 49 4.3 8.7 0.00 0.00 0.00 70 1016.8
20260505184555 49 28 4.3 11.3 0.00 0.00 0.00 68 1016.7
20260505184054 49 45 6.1 12.2 0.00 0.00 0.00 67 1016.6
20260505183555 50 37 6.1 10.4 0.00 0.00 0.00 69 1016.6
20260505181555 51 28 4.3 11.3 0.00 0.00 0.00 66 1016.4
20260505181055 51 27 5.2 10.4 0.00 0.00 0.00 67 1016.4
20260505174555 51 50 4.3 10.4 0.00 0.00 0.00 67 1016.3
20260505174055 52 44 5.2 11.3 0.00 0.00 0.00 67 1016.4
20260505173554 52 30 5.2 11.3 0.00 0.00 0.00 67 1016.3
20260505173056 52 59 7.0 13.0 0.00 0.00 0.00 67 1016.3
20260505171554 52 24 4.3 10.4 0.00 0.00 0.00 67 1016.3
20260505170556 52 59 4.3 10.4 0.00 0.00 0.00 66 1016.2
20260505170056 53 38 5.2 10.4 0.00 0.00 0.00 66 1016.2
20260505164555 52 42 3.5 10.4 0.00 0.00 0.00 67 1016.1
20260505161054 53 48 2.6 10.4 0.00 0.00 0.00 66 1016.1
20260505160555 53 34 4.3 10.4 0.00 0.00 0.00 66 1016.1
20260505153056 54 43 4.3 10.4 0.00 0.00 0.00 66 1016.0
20260505150554 55 46 5.2 10.4 0.00 0.00 0.00 64 1016.0
20260505140555 55 42 5.2 10.4 0.00 0.00 0.00 63 1015.9
20260505124555 58 28 3.5 6.1 0.00 0.00 0.00 54 1015.6
20260505124055 58 19 2.6 6.1 0.00 0.00 0.00 54 1015.6
20260505123555 58 47 2.6 6.1 0.00 0.00 0.00 55 1015.6
20260505123057 57 38 2.6 8.7 0.00 0.00 0.00 57 1015.6
20260505121055 57 36 2.6 7.0 0.00 0.00 0.00 57 1015.7
20260505120555 57 34 2.6 5.2 0.00 0.00 0.00 56 1015.8
20260505120056 56 43 2.6 5.2 0.00 0.00 0.00 61 1015.8
20260505114555 55 43 1.7 5.2 0.00 0.00 0.00 59 1015.8
20260505114055 55 60 2.6 6.1 0.00 0.00 0.00 60 1015.8
20260505113555 55 30 2.6 6.1 0.00 0.00 0.00 59 1015.8
20260505113056 55 35 1.7 6.1 0.00 0.00 0.00 58 1015.8
20260505101555 54 15 1.7 7.0 0.00 0.00 0.00 65 1015.7
20260505101056 54 347 2.6 5.2 0.00 0.00 0.00 64 1015.8
20260505100057 53 317 0.9 5.2 0.00 0.00 0.00 66 1015.6
20260505094555 53 30 0.9 2.6 0.00 0.00 0.00 66 1015.6
20260505093056 53 40 1.7 4.3 0.00 0.00 0.00 68 1015.6
20260505091555 53 3 1.7 2.6 0.00 0.00 0.00 69 1015.5
20260505091055 53 315 0.9 4.3 0.00 0.00 0.00 69 1015.6
20260505084055 52 283 1.7 6.1 0.00 0.00 0.00 73 1015.6
20260505081056 50 327 3.5 5.2 0.00 0.00 0.00 77 1015.5
20260505080555 50 330 3.5 7.8 0.00 0.00 0.00 77 1015.5
20260505074556 49 356 1.7 7.0 0.00 0.00 0.00 79 1015.4
20260505073555 48 287 1.7 7.0 0.00 0.00 0.00 80 1015.3